Weather in Serebryanie Prudy

Russia / Moscow Oblast     54°28′26″N   38°43′29″E
temp.,
°C
wind,
m/s
gust,
m/s
humid.,
%
clouds,
%
prec.,
mm/h
press.,
hPa
HPBL,
m
25 june, sat
sat2500:00+14ne377737 0.0 1016114
03:00+13ne33855 0.0 101739
06:00+15nne26845 0.0 1017162
09:00+20ne35705 0.0 1018526
12:00+23ne45584 0.0 10181519
15:00+25ne36523 0.0 10181917
18:00+25nnw346651 0.0 1017236
21:00+20nne368058 0.0 1019107
26 june, sun
sun2600:00+19ne46750 0.0 102095
03:00+16ne33867 0.0 102125
06:00+18n238317 0.0 102169
09:00+23n23672 0.0 1022397
12:00+26n33560 0.0 10221174
15:00+27nnw33530 0.0 10211553
18:00+26wnw24670 0.0 1021426
21:00+23w3371100 0.0 102141
27 june, mon
mon2700:00+22nw127114 0.0 102116
03:00+18wnw33875 0.0 102129
06:00+20nw36840 0.0 1021134
09:00+25nw45700 0.0 1021435
12:00+28nw45600 0.0 10201028
15:00+29nnw57585 0.0 10191716
18:00+28nnw36664 0.0 1018307
21:00+24n487076 0.0 1019154
28 june, tue
tue2800:00+20n33700 0.0 102029
03:00+18n22815 0.0 102021
06:00+18ne25874 0.0 1021163
09:00+21ene56715 0.0 1022639
12:00+22ne56565 0.0 10221048
15:00+23nne554613 0.0 10221422
18:00+21nne46574 0.0 1022336
21:00+15ne48684 0.0 1023133
29 june, wed
wed2900:00+12ene36701 0.0 102498
03:00+10ne33770 0.0 102528
06:00+12ne23770 0.0 102592
09:00+17ene34600 0.0 1025631
12:00+19ne34512 0.0 10251681
15:00+20ne34455 0.0 10242076
18:00+21nne14491 0.0 10241966
21:00+15nnw33650 0.0 102423